Regional Weather Roundup
Issued by NWS

Home | Current Version | Previous Version | Graphics & Text | Print | Product List | Glossary On
Versions: 1 2 3 4 5 6 7 8 9 10 11 12 13 14 15 16 17 18 19 20 21 22 23 24 25 26 27 28 29 30 31 32 33 34 35 36 37 38 39 40 41 42 43 44 45 46 47 48 49 50
000
ASUS43 KFSD 240510
RWRSD

WEATHER ROUNDUP FOR SOUTH DAKOTA
NATIONAL WEATHER SERVICE SIOUX FALLS SD
1200 AM CDT THU APR 24 2014

NOTE: "FAIR" INDICATES FEW OR NO CLOUDS BELOW 12,000 FEET WITH NO
SIGNIFICANT WEATHER AND/OR OBSTRUCTIONS TO VISIBILITY.


SDZ001>005-009-010-012>017-240600-
NORTHWEST AND NORTH CENTRAL SOUTH DAKOTA

CITY           SKY/WX    TMP DP  RH WIND       PRES   REMARKS
BUFFALO          N/A     41  26  55 W13       29.70R
FAITH            N/A     44  34  67 W8        29.77R
MOBRIDGE       MOCLDY    40  36  86 CALM      29.73R
$$

SDZ012>016-024>037-041>051-057-063-072>074-240600-
SOUTHWEST AND SOUTH CENTRAL SOUTH DAKOTA

CITY           SKY/WX    TMP DP  RH WIND       PRES   REMARKS
RAPID CTY ARPT CLOUDY    41  29  62 N9        29.80R
PIERRE         PTCLDY    44  36  73 NW13      29.74R
CUSTER         MOCLDY    39  22  50 VRB5      29.84R
ELLSWORTH AFB  MOCLDY    43  30  60 CALM      29.80R
PHILIP         CLOUDY    49  34  56 CALM      29.79R
PINE RIDGE     CLOUDY    47  36  65 E5        29.82R
SPEARFISH      FAIR      43  23  45 W8        29.82R
WINNER         CLOUDY    54  38  54 NW10      29.75R
$$

SDZ004>011-016>023-039-040-240600-
NORTHEAST SOUTH DAKOTA

CITY           SKY/WX    TMP DP  RH WIND       PRES   REMARKS
ABERDEEN       MOCLDY    44  40  85 SE7       29.72S
WATERTOWN      MOCLDY    43  38  82 SE12      29.73R
SISSETON         N/A     41  38  89 SE15      29.76S
$$

SDZ017-020-022-023-036>040-048>070-240600-
SOUTHEAST SOUTH DAKOTA

CITY           SKY/WX    TMP DP  RH WIND       PRES   REMARKS
SIOUX FALLS    CLOUDY    47  39  74 E17       29.69S
HURON          CLOUDY    51  40  65 SE8       29.69R
CHAMBERLAIN      N/A     55  41  59 N18G26    29.71R
MITCHELL       CLOUDY    51  42  71 SE14      29.65R
YANKTON        CLOUDY    52  45  76 E13       29.65F
$$

ABBREVIATIONS USED IN REMARKS
   TC - TEMPERATURE IN CELSIUS
  WCI - WIND CHILL INDEX
   HX - HEAT INDEX
  VSB - VISIBILITY




USA.gov is the U.S. government's official web portal to all federal, state and local government web resources and services.